[[{"header":{"parameterUnit":"m.s-1","parameterCategory":1,"la1":30.2991,"la2":30.254,"lo1":-89.0895,"lo2":-89.0444,"dy":0.0017,"dx":0.0017,"nx":28,"ny":28,"refTime":"2024-02-11T03:00:00:Z","depth":0,"parameterNumber":2,"parameterNumberName":"U-component_of_WINDS"},"data":[0,0,0,0,0,0,0,0,0,0,0,0,0,0,0,0,0,0,0,0,0,0,0,0,0,0,0,0,0,0,0,0,0,0,0,0,0,0,0,0,0,0,0,0,0,0,0,0,0,0,0,0,0,0,0,0,0,0,-1.5698,-1.57,0,-1.5813,-1.5814,-1.5815,-1.5856,-1.5856,-1.5855,-1.5855,-1.5974,-1.5977,-1.5981,0,0,0,0,0,0,0,0,0,0,0,0,0,-1.5516,-1.5519,-1.5698,-1.57,-1.5701,-1.5813,-1.5814,-1.5816,-1.5856,-1.5856,-1.5855,-1.5855,-1.5973,-1.5977,-1.5981,0,0,0,0,0,0,0,0,0,0,0,0,0,-1.5609,-1.552,-1.5698,-1.5735,-1.5739,-1.5812,-1.5814,-1.5816,-1.5856,-1.5856,-1.5855,-1.5854,-1.5971,-1.5977,-1.5982,-1.6028,0,0,-1.5998,-1.6,0,0,0,0,0,0,0,0,-1.5604,-1.5616,-1.5728,-1.5732,-1.5737,-1.5819,-1.5794,-1.5887,-1.5856,-1.5812,-1.5855,-1.5854,-1.5923,-1.5932,-1.5955,-1.6033,-1.6038,-1.5999,-1.6002,-1.6004,-1.6006,0,0,0,0,0,0,0,-1.5598,-1.5611,-1.5744,-1.5729,-1.5735,-1.5746,-1.5758,-1.5812,-1.587,-1.5816,-1.5819,-1.5832,-1.5926,-1.595,-1.5958,-1.604,-1.5998,-1.6003,-1.6007,-1.6009,-1.6161,-1.6161,0,0,0,0,0,0,-1.5585,-1.5606,-1.574,-1.5747,-1.5668,-1.575,-1.5764,-1.5794,-1.5869,-1.588,-1.5832,-1.5833,-1.5941,-1.5952,-1.5963,-1.6021,-1.6004,-1.6009,-1.6012,-1.616,-1.6161,-1.6162,0,0,0,0,0,0,-1.5581,-1.5596,-1.5735,-1.5677,-1.5696,-1.5753,-1.5787,-1.5796,-1.5821,-1.5882,-1.5892,-1.5846,-1.5941,-1.5955,-1.6011,-1.6025,-1.6012,-1.6016,-1.6159,-1.616,-1.6161,-1.6137,0,0,0,0,0,0,-1.5575,-1.5595,-1.5612,-1.5677,-1.5699,-1.5781,-1.5788,-1.5799,-1.583,-1.5832,-1.5898,-1.5908,-1.5942,-1.6003,-1.6016,-1.6033,-1.6021,-1.6158,-1.6159,-1.6161,-1.6137,-1.6137,-1.6138,0,0,0,0,0,-1.5569,-1.5601,-1.5613,-1.5629,-1.5722,-1.5782,-1.5794,-1.5832,-1.5831,-1.5849,-1.5888,-1.5906,-1.6022,-1.6008,-1.6024,-1.6042,-1.6157,-1.6159,-1.6161,-1.6137,-1.6137,-1.6138,0,0,0,0,0,0,-1.5537,-1.5611,-1.5624,-1.5679,-1.5724,-1.5788,-1.5813,-1.5831,-1.5878,-1.5878,-1.5923,-1.5938,-1.599,-1.6022,-1.6005,-1.609,-1.6091,-1.6096,-1.6067,-1.6068,-1.6068,-1.6059,-1.6025,0,0,0,0,0,-1.5536,-1.5578,-1.5641,-1.5683,-1.5705,-1.5755,-1.5782,-1.5807,-1.5856,-1.5875,-1.5918,-1.5965,-1.6012,-1.6042,-1.6089,-1.6142,-1.6157,-1.6162,-1.6163,-1.6163,-1.6166,-1.6196,-1.6199,-1.6168,-1.6168,-1.6168,0,0,-1.5536,-1.5581,-1.5605,-1.5678,-1.5715,-1.5758,-1.577,-1.5815,-1.5847,-1.5882,-1.5937,-1.597,-1.6025,-1.608,-1.6106,-1.6108,-1.6178,-1.6165,-1.6165,-1.6168,-1.6199,-1.6202,-1.6204,-1.6169,-1.6169,-1.6169,0,0,-1.5556,-1.5594,-1.5633,-1.5671,-1.5727,-1.576,-1.5769,-1.5832,-1.5855,-1.591,-1.5937,-1.5977,-1.6057,-1.6095,-1.6124,-1.6159,-1.6177,-1.6173,-1.6175,-1.6204,-1.6206,-1.6209,-1.622,-1.6224,-1.6176,-1.6176,-1.6176,0,-1.5548,-1.5612,-1.5651,-1.5694,-1.5726,-1.5758,-1.5798,-1.5833,-1.5902,-1.5923,-1.5924,-1.6025,-1.6065,-1.6128,-1.6136,-1.616,-1.6172,-1.6165,-1.6203,-1.6205,-1.6208,-1.622,-1.6224,-1.6175,-1.6175,-1.6176,-1.6176,0,-1.5599,-1.5644,-1.5669,-1.5733,-1.5768,-1.5809,-1.5855,-1.5885,-1.5907,-1.594,-1.5996,-1.6045,-1.6101,-1.6118,-1.6141,-1.6185,-1.6185,-1.6194,-1.6195,-1.621,-1.6221,-1.6226,-1.6174,-1.6174,-1.6175,-1.6175,0,0,-1.5602,-1.5688,-1.5696,-1.5726,-1.579,-1.5826,-1.5869,-1.5924,-1.5948,-1.5995,-1.6032,-1.6099,-1.6108,-1.6141,-1.6169,-1.6194,-1.6217,-1.62,-1.6202,-1.6201,-1.6268,-1.626,-1.6265,-1.623,-1.6231,-1.6232,-1.6263,0,-1.563,-1.5707,-1.5743,-1.5805,-1.5846,-1.5878,-1.5915,-1.5959,-1.5991,-1.6032,-1.6068,-1.6114,-1.6122,-1.6143,-1.6169,-1.6208,-1.6231,-1.6207,-1.6265,-1.6266,-1.6249,-1.6271,-1.6263,-1.6291,-1.6268,-1.6269,-1.627,0,-1.5673,-1.5718,-1.5783,-1.5842,-1.5861,-1.5894,-1.5947,-1.5985,-1.6036,-1.6057,-1.6095,-1.6121,-1.6168,-1.6166,-1.6231,-1.6214,-1.624,-1.6263,-1.6265,-1.6271,-1.6268,-1.6277,-1.63,-1.6304,-1.6277,-1.6277,-1.6276,0,-1.5667,-1.5745,-1.5794,-1.5818,-1.5889,-1.5911,-1.5942,-1.5992,-1.6022,-1.6069,-1.6089,-1.6141,-1.6169,-1.6209,-1.6248,-1.6243,-1.6309,-1.6311,-1.6328,-1.6327,-1.634,-1.6338,-1.6367,-1.6358,-1.6358,-1.6358,-1.6358,0,-1.5694,-1.5732,-1.5792,-1.5822,-1.5866,-1.5907,-1.595,-1.5983,-1.6028,-1.6065,-1.6096,-1.6131,-1.6181,-1.6222,-1.6253,-1.6302,-1.6315,-1.6334,-1.6341,-1.633,-1.6328,-1.6347,-1.6346,-1.6359,-1.6359,-1.6358,-1.6358,0,-1.5694,-1.5736,-1.5791,-1.5853,-1.587,-1.59,-1.5953,-1.5984,-1.6017,-1.6064,-1.6078,-1.6131,-1.618,-1.6224,-1.629,-1.6311,-1.6361,-1.6371,-1.6343,-1.6347,-1.6362,-1.6359,-1.6403,-1.6411,-1.6397,-1.6397,-1.6397,0,-1.5708,-1.5738,-1.5803,-1.583,-1.586,-1.5903,-1.5934,-1.5976,-1.6008,-1.6067,-1.6091,-1.6143,-1.6186,-1.6264,-1.6309,-1.636,-1.6371,-1.6383,-1.6379,-1.6366,-1.637,-1.6367,-1.6371,-1.6382,-1.6382,-1.6382,-1.6382,0,-1.5728,-1.5747,-1.579,-1.584,-1.5876,-1.5918,-1.5961,-1.5981,-1.6032,-1.6065,-1.6116,-1.615,-1.6217,-1.6268,-1.6324,-1.6356,-1.6377,-1.6383,-1.639,-1.6378,-1.6361,-1.637,-1.6342,-1.6382,-1.6382,-1.6382,-1.6382,-1.6382,-1.5735,-1.5763,-1.5813,-1.586,-1.5897,-1.5936,-1.5967,-1.6005,-1.6047,-1.6105,-1.6128,-1.6179,-1.6229,-1.6306,-1.6338,-1.638,-1.6383,-1.6393,-1.6395,-1.6397,-1.6395,-1.6355,-1.639,-1.639,-1.639,-1.639,-1.6391,0,-1.5756,-1.579,-1.5832,-1.5891,-1.5928,-1.5944,-1.5992,-1.6022,-1.6067,-1.6112,-1.6154,-1.6212,-1.6262,-1.6311,-1.6363,-1.6387,-1.6398,-1.6399,-1.6397,-1.6404,-1.6389,-1.6378,-1.6389,-1.6389,-1.6389,-1.6389,-1.6389,-1.6389,-1.5771,-1.5819,-1.5844,-1.591,-1.5944,-1.5994,-1.602,-1.6057,-1.6093,-1.6156,-1.6197,-1.6228,-1.6275,-1.6331,-1.6377,-1.639,-1.6408,-1.6406,-1.6422,-1.6406,-1.6406,-1.6405,-1.6395,-1.641,-1.641,-1.6434,-1.6434,-1.6434]},{"header":{"parameterUnit":"m.s-1","parameterCategory":1,"la1":30.2991,"la2":30.254,"lo1":-89.0895,"lo2":-89.0444,"dy":0.0017,"dx":0.0017,"nx":28,"ny":28,"refTime":"2024-02-11T03:00:00:Z","depth":0,"parameterNumber":3,"parameterNumberName":"V-component_of_WINDS"},"data":[0,0,0,0,0,0,0,0,0,0,0,0,0,0,0,0,0,0,0,0,0,0,0,0,0,0,0,0,0,0,0,0,0,0,0,0,0,0,0,0,0,0,0,0,0,0,0,0,0,0,0,0,0,0,0,0,0,0,4.173,4.1731,0,4.1859,4.186,4.1862,4.1874,4.1872,4.1871,4.187,4.1999,4.2003,4.2008,0,0,0,0,0,0,0,0,0,0,0,0,0,4.1491,4.1495,4.1729,4.1731,4.1733,4.1858,4.186,4.1862,4.1874,4.1872,4.1871,4.1869,4.1997,4.2002,4.2008,0,0,0,0,0,0,0,0,0,0,0,0,0,4.1605,4.1497,4.1729,4.1754,4.1757,4.1858,4.186,4.1862,4.1874,4.1872,4.187,4.1868,4.1995,4.2002,4.2009,4.2093,0,0,4.203,4.2033,0,0,0,0,0,0,0,0,4.1598,4.1614,4.1749,4.1752,4.1757,4.1848,4.1823,4.1939,4.1875,4.183,4.187,4.1867,4.195,4.196,4.1989,4.2099,4.2104,4.2031,4.2035,4.2038,4.204,0,0,0,0,0,0,0,4.159,4.1608,4.178,4.1751,4.1755,4.1758,4.1772,4.1845,4.1899,4.1834,4.1835,4.185,4.1952,4.1982,4.1992,4.2106,4.2031,4.2037,4.2041,4.2044,4.2292,4.2295,0,0,0,0,0,0,4.1578,4.1601,4.1776,4.1784,4.1671,4.1764,4.1779,4.1821,4.1899,4.1909,4.1852,4.185,4.1971,4.1984,4.1997,4.2102,4.2038,4.2045,4.2049,4.229,4.2293,4.2296,0,0,0,0,0,0,4.1573,4.1594,4.1771,4.1693,4.1716,4.177,4.1816,4.1824,4.1855,4.1913,4.1922,4.1873,4.197,4.1987,4.2069,4.2106,4.2048,4.2054,4.2287,4.2291,4.2294,4.2311,0,0,0,0,0,0,4.1566,4.1592,4.1625,4.1694,4.172,4.1843,4.1819,4.1828,4.1868,4.1867,4.1935,4.1945,4.197,4.2059,4.2076,4.2115,4.206,4.2284,4.2289,4.2293,4.2308,4.2315,4.2321,0,0,0,0,0,4.1558,4.1623,4.1626,4.1647,4.1763,4.1845,4.186,4.1888,4.187,4.1904,4.1941,4.1942,4.2099,4.2067,4.2087,4.2128,4.2282,4.2288,4.2293,4.2305,4.2314,4.2321,0,0,0,0,0,0,4.1556,4.1633,4.1637,4.1727,4.178,4.1847,4.189,4.1897,4.1954,4.1951,4.1983,4.1998,4.208,4.2112,4.2075,4.2214,4.2189,4.2198,4.2191,4.22,4.2206,4.2198,4.2066,0,0,0,0,0,4.1566,4.1627,4.169,4.1764,4.179,4.1835,4.1872,4.189,4.1945,4.1967,4.201,4.2062,4.2123,4.2163,4.2222,4.2312,4.2327,4.235,4.2356,4.2362,4.237,4.2422,4.2433,4.2313,4.2313,4.2313,0,0,4.1587,4.1637,4.1673,4.1765,4.1807,4.187,4.1854,4.192,4.1966,4.1976,4.2058,4.2091,4.2152,4.2239,4.2279,4.2268,4.2407,4.2369,4.2372,4.2378,4.2428,4.244,4.245,4.2317,4.2316,4.2316,0,0,4.1659,4.1702,4.1769,4.1812,4.1878,4.1907,4.1923,4.199,4.2013,4.2096,4.2105,4.216,4.2264,4.2308,4.2343,4.2432,4.2436,4.245,4.2486,4.2536,4.2545,4.2554,4.2588,4.2599,4.2458,4.2458,4.2458,0,4.1677,4.1772,4.1802,4.1869,4.1909,4.1922,4.199,4.203,4.2111,4.2139,4.2125,4.2257,4.2299,4.2397,4.2419,4.2447,4.2466,4.2443,4.2542,4.2551,4.2559,4.2591,4.2604,4.2459,4.2459,4.2459,4.2459,0,4.1792,4.1858,4.1904,4.1984,4.2029,4.2096,4.2136,4.2178,4.2191,4.2223,4.2307,4.2357,4.2428,4.2452,4.2465,4.2552,4.2544,4.2535,4.2511,4.2572,4.2603,4.2615,4.2461,4.2461,4.246,4.246,0,0,4.1867,4.1963,4.198,4.2017,4.209,4.2142,4.2209,4.228,4.2316,4.237,4.2429,4.2517,4.251,4.2551,4.2569,4.2612,4.2682,4.2599,4.2601,4.2614,4.2783,4.2791,4.2805,4.2684,4.2686,4.2688,4.2779,0,4.1949,4.2072,4.2101,4.2205,4.2267,4.228,4.2339,4.239,4.2421,4.2477,4.251,4.2574,4.2559,4.2584,4.2627,4.2664,4.2716,4.2657,4.2739,4.2741,4.2726,4.2821,4.2829,4.2912,4.2791,4.2793,4.2794,0,4.2061,4.2121,4.2232,4.2299,4.2326,4.2379,4.2447,4.25,4.2558,4.2577,4.2623,4.2637,4.2707,4.2678,4.2775,4.2735,4.2769,4.2792,4.2796,4.2807,4.2773,4.2836,4.2939,4.2952,4.2813,4.2812,4.281,0,4.2108,4.2215,4.2297,4.2328,4.2407,4.2444,4.2478,4.2534,4.2575,4.2634,4.2661,4.2726,4.2762,4.2811,4.2842,4.2817,4.2938,4.2911,4.2957,4.2956,4.2983,4.2982,4.3096,4.3002,4.3001,4.3001,4.3001,0,4.2197,4.2266,4.2319,4.2369,4.2446,4.2478,4.2553,4.2587,4.2637,4.2694,4.2708,4.276,4.2797,4.2855,4.2878,4.2957,4.2972,4.299,4.2996,4.2991,4.2989,4.3015,4.3011,4.3005,4.3004,4.3003,4.3003,0,4.2263,4.2302,4.2392,4.246,4.2478,4.2532,4.259,4.2639,4.267,4.2742,4.276,4.2808,4.2877,4.2912,4.2997,4.3013,4.3102,4.3103,4.3084,4.3087,4.3132,4.3128,4.3269,4.329,4.3179,4.318,4.3181,0,4.2319,4.2373,4.2447,4.2487,4.2522,4.2586,4.2629,4.2661,4.2705,4.2775,4.2816,4.2886,4.2944,4.3053,4.3095,4.316,4.3164,4.3209,4.3174,4.3167,4.3168,4.3165,4.3172,4.3216,4.3217,4.3218,4.3219,0,4.2415,4.2432,4.2494,4.2562,4.2613,4.2668,4.2722,4.2754,4.2795,4.2843,4.2915,4.296,4.3048,4.3117,4.3186,4.322,4.3227,4.3229,4.3244,4.324,4.3227,4.3237,4.3103,4.3226,4.3225,4.3225,4.3224,4.3224,4.248,4.2529,4.2589,4.2658,4.2702,4.2753,4.2803,4.2841,4.2902,4.2977,4.2992,4.3068,4.3125,4.3218,4.3254,4.3314,4.3304,4.3324,4.333,4.3335,4.3339,4.3216,4.3326,4.3325,4.3325,4.3325,4.3325,0,4.2579,4.2619,4.2682,4.2758,4.2812,4.2814,4.2874,4.2919,4.2987,4.3039,4.3097,4.3179,4.3247,4.3294,4.3362,4.3401,4.3406,4.3418,4.3417,4.3425,4.3342,4.3324,4.3413,4.3413,4.3413,4.3413,4.3413,4.3413,4.2638,4.2721,4.2745,4.285,4.2889,4.2965,4.3,4.3047,4.309,4.3182,4.3239,4.3269,4.332,4.3393,4.3455,4.3467,4.3492,4.3505,4.3517,4.344,4.343,4.3422,4.3405,4.3509,4.3509,4.3595,4.3596,4.3597]}]]